User: anonymous   Login
Location: Caltech
(34.1382°N, 118.1253°W)
Time: 13:03:10
(UTC-07:00)
Language:

Uribyol 2 - Orbit

View from above orbital plane
View from above orbital plane
View from above satellite
View from above satellite

Ground track
Ground track

The orbit data is extracted from the following two-line orbital elements,

1 22828U 93061F   17265.92599858 +.00000024 +00000-0 +26834-4 0  9990
2 22828 098.8087 231.5406 0010129 011.0849 349.0554 14.30649247219687
Epoch (UTC): 22 September 2017 22:13:26
Eccentricity: 0.0010129
inclination: 98.8087°
perigee height: 782 km
apogee height: 797 km
right ascension of ascending node: 231.5406°
argument of perigee: 11.0849°
revolutions per day: 14.30649247
mean anomaly at epoch: 349.0554°
orbit number at epoch: 21968

The dashed part of the orbit path shows where the satellite is in the earth's shadow,  

DLR